www.pogodaiklimat.ru

Погода и климат >> Архив погоды >> Марокко >> Нуасер


ПОГОДА в Нуасере

  • Прогноз погоды в Нуасере
  • Монитор погоды в Нуасере

АРХИВ ПОГОДЫ в Нуасере

Время (UTC), дата Ветер
(напр.,м/с)
 
Видим.   Явления Облачность Т
(С)
Тd
(С)
f
(%)
Тe
(С)
Тes
(С)
Комфортность P
(гПа)
Po
(гПа)
Тmin
(С)
Tmax
(С)
R
(мм)
R24
(мм)
S
(см)
03 10.09 штиль 0 6000 м {дымка} 4/4 180 м
[St]
+19.8 +19.8 100 +23 +23 комфорт 1019.5 995.3
06 10.09 штиль 0 300 м туман 9/9 60 м
[St]
+19.6 +19.6 100 +22 +22 комфорт 1019.8 995.6 +19.3
09 10.09 штиль 0 5000 м {туман, дымка} 9/9 300 м
[St]
+21.0 +21.0 100 +26 +27 душно 1020.8 996.7
12 10.09 С 6 10 км {метель} 5/5 480 м
[Sc]
+25.5 +19.6 70 +31 +34 очень
душно
1020.2 996.4
15 10.09 СЗ 7 10 км 3/3 480 м
[Cu med, cong]
+25.6 +17.0 59 +29 +31 душно 1018.6 994.9
18 10.09 С 8 10 км 4/4 480 м
[Sc]
+22.2 +17.1 73 +27 +27 душно 1019.3 995.3 +26.1
21 10.09 С 5 10 км 4/4 480 м
[Sc]
+20.1 +18.2 89 +23 +23 комфорт 1020.0 995.8
00 11.09 С 5 10 км 4/4 480 м
[Sc]
+19.4 +15.9 80 +21 +21 комфорт 1019.6 995.4
03 11.09 штиль 0 10 км 4/4 480 м
[Sc]
+18.1 +15.0 82 +18 +18 1018.4 994.1
06 11.09 штиль 0 10 км 3/3 480 м
[Sc]
+17.1 +13.2 78 +17 +17 1018.4 994.0 +17.1
09 11.09 штиль 0 10 км ясно +21.1 +14.3 65 +24 +32 комфорт 1019.4 995.3
12 11.09 СВ 3 10 км ясно +25.6 +10.2 38 +26 +41 жарко 1017.9 994.2
15 11.09 С 7 10 км ясно +27.1 +10.3 35 +28 +30 жарко 1016.5 992.9
18 11.09 С 8 10 км ясно +23.8 +17.1 66 +28 +28 душно 1016.7 992.9 +27.7
21 11.09 СВ 6 10 км ясно +20.8 +16.8 78 +24 +24 комфорт 1018.3 994.2
00 12.09 СВ 3 10 км ясно +18.9 +15.4 80 +20 +20 1017.8 993.6
03 12.09 СВ 3 10 км ясно +18.3 +13.2 72 +19 +19 1017.0 992.7
06 12.09 СВ 3 10 км 3/3 300 м
[St]
+18.3 +16.6 90 +19 +19 1016.7 992.4 +16.1
09 12.09 СВ 5 10 км ясно +22.2 +14.6 62 +26 +29 душно 1017.1 993.1
12 12.09 СВ 5 10 км ясно +28.1 +8.9 30 +28 +36 жарко 1015.9 992.4
15 12.09 С 9 10 км ясно +27.6 +9.9 33 +28 +29 жарко 1014.7 991.2
18 12.09 С 10 10 км ясно +23.7 +13.0 51 +26 +26 жарко 1015.7 991.9 +28.8
21 12.09 СВ 4 10 км ясно +21.8 +16.3 71 +26 +26 душно 1016.5 992.5
00 13.09 ЮВ 2 10 км 3/3 480 м
[Sc]
+19.6 +16.3 81 +23 +23 комфорт 1016.1 992.0
03 13.09 0 10 км 3/3 480 м
[Sc]
+17.9 +16.2 90 1015.0 990.7
06 13.09 Ю 3 10 км ясно +14.0 +11.9 87 +13 +13 1015.6 991.0 +14.0
09 13.09 С 3 10 км ясно +22.0 +12.3 54 +24 +29 комфорт 1015.9 992.0
12 13.09 С 3 10 км ясно +26.8 +10.5 36 +28 +41 жарко 1015.6 992.0
15 13.09 С 7 10 км ясно +27.1 +16.1 51 +30 +34 душно 1014.5 991.0
18 13.09 С 6 10 км ясно +24.0 +13.8 53 +26 +27 жарко 1015.6 991.8 +29.3
21 13.09 СВ 2 10 км ясно +21.3 +17.1 77 +25 +25 комфорт 1017.9 993.9
03 14.09 штиль 0 2000 м дымка 5/5 300 м
[St]
+16.1 +16.1 100 +16 +16 1016.5 992.1
06 14.09 штиль 0 400 м туман 5/5 120 м
[St]
+18.0 +18.0 100 +18 +18 1016.6 992.3 +14.1
09 14.09 штиль 0 8000 м 5/5 180 м
[St]
+19.1 +18.3 95 +21 +25 комфорт 1017.9 993.7
12 14.09 С 1 10 км ясно +27.1 +17.0 54 +31 +49 душно 1016.1 992.6
15 14.09 С 7 10 км 3/3 600 м
[Sc]
+26.8 +19.4 64 +32 +34 очень
душно
1015.2 991.6
18 14.09 С 6 10 км 4/4 600 м
[Sc]
+23.4 +20.5 84 +31 +31 очень
душно
1016.6 992.8 +28.5
21 14.09 З 2 23 км 6/6 480 м
[Sc]
+21.5 +17.7 79 +26 +26 душно 1019.0 994.9
00 15.09 З 1 10 км 5/5 450 м
[Sc]
+18.6 +17.8 95 +21 +21 комфорт 1018.5 994.2
03 15.09 ЮЗ 2 10 км 5/5 240 м
[St]
+18.8 +17.3 91 +21 +21 комфорт 1017.7 993.5
06 15.09 Ю 1 6000 м 5/5 450 м
[Sc]
+16.1 +15.0 93 +17 +17 1018.7 994.2 +15.8
09 15.09 штиль 0 10 км 4/4 480 м
[Sc]
+21.8 +20.6 93 +28 +33 душно 1019.1 995.1
12 15.09 С 3 10 км 3/0
[Ci sp]
+27.9 +16.5 50 +31 +44 душно 1018.3 994.8
15 15.09 С 6 10 км ясно +28.3 +16.2 48 +32 +35 душно 1017.2 993.7
18 15.09 С 7 10 км 3/3 480 м
[Sc]
+24.7 +20.8 79 +31 +31 очень
душно
1017.7 993.9 +29.6
21 15.09 С 4 10 км 5/5 400 м
[Sc]
+22.4 +21.6 95 +30 +30 очень
душно
1019.4 995.4
00 16.09 штиль 0 10 км 3/3 400 м
[Sc]
+21.1 +21.1 100 +26 +26 душно 1019.2 995.1
03 16.09 СВ 3 7000 м 3/3 400 м
[Sc]
+19.9 +19.9 100 +24 +24 комфорт 1017.9 993.7
06 16.09 СВ 1 6000 м 4/4 300 м
[St]
+18.8 +18.8 100 +21 +21 комфорт 1018.0 993.7 +16.6
09 16.09 СВ 3 8000 м 3/3 300 м
[St]
+21.7 +20.3 92 +27 +31 душно 1018.5 994.5
12 16.09 С 5 10 км 4/3 480 м
[Sc Ci sp]
+28.7 +18.2 53 +33 +39 очень
душно
1017.4 993.9
15 16.09 С 7 10 км 5/3 480 м
[Sc Ci sp]
+28.3 +17.2 51 +32 +34 душно 1015.9 992.4
18 16.09 С 5 10 км 9/4 480 м
[Sc Ci]
+23.9 +18.1 70 +28 +28 душно 1016.4 992.6 +29.4
21 16.09 С 5 10 км 8/5 240 м
[St Ac cast]
+22.4 +20.5 89 +29 +29 очень
душно
1016.7 992.8
00 17.09 С 4 10 км 8/4 300 м
[St Ac cast]
+21.3 +21.1 99 +27 +27 душно 1016.1 992.1

 

Местоположение метеостанции Нуасер (Марокко): широта 33.37 долгота -7.58 высота над уровнем моря 206 м.

В архиве по умолчанию представлена погода в Нуасере за последнюю неделю. Архивные данные за месяц целиком и за предыдущие месяцы, начиная с января 2011 года, Вы можете получить, выбрав интересующий диапазон дат из раскрывающегося списка и нажав кнопку "Ввод!".


*Определитесь, кто Вы:
робот инопланетянин человек

Внимание! Время в таблицах - всемирное. Для получения местного времени необходимо прибавить поправку, которая равна 0 ч.

Смотрите также архив погоды в соседних городах и на ближайших метеорологических станциях:

Погода в Касабланке (Марокко) (24 км)
Погода в Мохаммедии (Марокко) (42 км)
Погода в Сеттате (Марокко) (47 км)
Погода в Хурибге (Марокко) (80 км)
Погода в Рабате (Марокко) (106 км)
Погода в Кенитре (Марокко) (137 км)
Погода в Касба-Тадле (Марокко) (153 км)
Погода в Бени-Меллале (Марокко) (157 км)
Погода в Сафи (Марокко) (196 км)
Погода в Мекнесе (Марокко) (198 км)

Пояснения к столбцам:

Ветер - указаны скорость ветра в м/с - средняя за 10 мин, порывы в срок и между сроками (в фигурных скобках) и направление, откуда дует ветер: С - северный, СВ - северо-восточный, В - восточный, ЮВ - юго-восточный, Ю - южный, ЮЗ - юго-западный, З - западный, СЗ - северо-западный.
Видимость - горизонтальная дальность видимости в метрах или километрах. При видимости от 1 до 10 км при отсутствии осадков обычно наблюдается дымка, при ухудшении видимости до 1 км и менее - туман. В сухую погоду видимость может ухудшаться дымом, пылью или мглою.
Явления - указаны атмосферные явления, наблюдавшиеся в срок или в последний час перед сроком; фигурными скобками обозначены явления, наблюдавшиеся между сроками (за 1-3 часа до срока); квадратными скобками обозначены град или гололедные отложения с указанием их диаметра в мм.
Облачность - указаны через наклонную черту общая и нижняя облачность в баллах и высота нижней границы облаков в метрах; квадратными скобками обозначены формы облаков: Ci - перистые, Cs - перисто-слоистые, Cc - перисто-кучевые, Ac - высококучевые, As - высокослоистые, Sc - слоисто-кучевые, Ns - слоисто-дождевые, Cu - кучевые, Cb - кучево-дождевые. Подробнее классификацию облаков см. в Атласе облаков (PDF).
T - Температура воздуха - температура, измеренная на высоте 2 м над землей.
Td - Температура точки росы - температура, при понижении до которой содержащийся в воздухе водяной пар достигнет насыщения.
f - Относительная влажность воздуха - влажноcть воздуха, измеренная на высоте 2 м над землей.
Te - Эффективная температура - температура, которую ощущает одетый по сезону человек в тени. Характеристика душности погоды. При расчете учитывается влияние влажности воздуха и скорости ветра на теплоощущения человека.
Tes - Эффективная температура на солнце - температура, которую ощущает человек, с поправкой на солнечный нагрев. Характеристика знойности погоды. Зависит от высоты солнца над горизонтом, облачности и скорости ветра. Ночью, в пасмурную погоду, а также при ветре 12 м/с и более поправка равна нулю.
P - Атмосферное давление - приведенное к уровню моря атмосферное давление.
Po - Атмосферное давление - измеренное на уровне метеостанции атмосферное давление.
Tmin - Минимальная температура - минимум температуры воздуха на высоте 2 м над землей.
Tmax - Максимальная температура - максимум температуры воздуха на высоте 2 м над землей.
R - Количество осадков - Количество выпавших осадков за период времени, мм. При наведении курсора мыши на число - период времени, за который выпало указанное количество осадков.
R24 - Количество осадков - Количество выпавших осадков за 24 часа, мм.
S - Снежный покров - Высота снежного покрова, см. При наведении курсора мыши на число - состояние снежного покрова и степень покрытия местности в баллах.